sat.trackr.live / text

‹ back to catalog

STARLINK-5630

NORAD 55406 · 2023-014R

PAYLOAD ACTIVE UNKNOWN

§ Identity

Operator
Country
US
Launch date
2023-01-31
Launch site
AFWTR
Launch vehicle
Mass (kg)
RCS (m²)

Purposes: comms

External: N2YO · Heavens-Above · Gunter

§ Orbital elements

Epoch: 2026-05-25T04:59:13.632288Z

Period
96.11 min
Inclination
69.9995°
Eccentricity
0.0003283
Mean motion
14.98329379 rev/d
Perigee alt
569.8 km
Apogee alt
574.3 km
Semi-major
6,950.2 km
B*
1.1948e-5
RAAN
231.6631°
Arg perigee
270.8298°
Mean anomaly
89.2485°
Rev number
18,351

§ Raw data

STARLINK-56301 55406U 23014R   26145.20779667  .00000050  00000+0  11948-4 0  99932 55406  69.9995 231.6631 0003283 270.8298  89.2485 14.98329379183512

JSON: /api/v1/satellites/55406 · /tle

For live sub-satellite position, see the globe view (requires WebGL).

§ Visibility from observer

Set your observer location to see the next 7 days of passes ≥ 10°. The values pass through the URL so the page stays shareable.

No JS? Fill the form by hand. The geolocation button needs JavaScript.